Hourly Weather Roundup
Issued by NWS Central Illinois

Home | Current Version | Previous Version | Text Only | Print | Product List | Glossary On
Versions: 1 2 3 4 5 6 7 8 9 10 11 12 13 14 15 16 17 18 19 20 21 22 23 24 25 26 27 28 29 30 31 32 33 34 35 36 37 38 39 40 41 42 43 44 45 46 47 48 49 50
000
NZUS43 KILX 270010
HWRILX

Area Weather Roundup
National Weather Service Lincoln IL
700 PM CDT WED APR 26 2017

NOTE:  "FAIR" indicates few or no clouds below 12,000 feet, with
       no sigificant weather and/or obstructions to visibility.


CITY           SKY/WX    TMP DP  RH WIND       PRES   REMARKS
Bloomington    LGT RAIN  62  59  90 W9        29.49R
6HR MIN TEMP:  62; 6HR MAX TEMP:  73; 6HR PCP:  0.03;

Champaign      LGT RAIN  63  59  87 SW5       29.48F FOG
6HR MIN TEMP:  63; 6HR MAX TEMP:  81; 6HR PCP:  0.13;

Danville       CLOUDY    64  62  93 S5        29.46R
6HR MIN TEMP:  64; 6HR MAX TEMP:  83; 6HR PCP:  0.06;

Decatur        LGT RAIN  62  62 100 S3        29.47F
6HR MIN TEMP:  62; 6HR MAX TEMP:  76; 6HR PCP:  0.11;

Effingham      CLOUDY    62  62 100 S6        29.57R
6HR MIN TEMP:  61; 6HR MAX TEMP:  79; 6HR PCP:  0.23;

Flora          TSTM      63  61  94 NW8       29.53R
6HR MIN TEMP:  60; 6HR MAX TEMP:  82; 6HR PCP:  0.35;

Galesburg      CLOUDY    49  47  91 NW9       29.50S
6HR MIN TEMP:  49; 6HR MAX TEMP:  54; 6HR PCP:  0.02;

Jacksonville   LGT RAIN  55  53  95 NW9       29.47F
6HR MIN TEMP:  55; 6HR MAX TEMP:  64; 6HR PCP:  0.08;

Lacon          CLOUDY    55  52  90 NW5       29.48S
6HR MIN TEMP:  55; 6HR MAX TEMP:  68; 6HR PCP:  0.03;

Lawrenceville  CLOUDY    63  60  90 NW5       29.50F
6HR MIN TEMP:  63; 6HR MAX TEMP:  84; 6HR PCP: TRACE;

Litchfield     LGT RAIN  60  59  97 SE6       29.48R
6HR MIN TEMP:  60; 6HR MAX TEMP:  72; 6HR PCP:  0.17;

$$


CITY           SKY/WX    TMP DP  RH WIND       PRES   REMARKS
Lincoln        LGT RAIN  62  62 100 CALM      29.48R
6HR MIN TEMP:  62; 6HR MAX TEMP:  74; 6HR PCP:  0.09;

Macomb         CLOUDY    50  48  92 NW14      29.52F
6HR MIN TEMP:  50; 6HR MAX TEMP:  55; 6HR PCP:  0.02;

Mattoon        TSTM      63  63 100 W5        29.49F
6HR MIN TEMP:  63; 6HR MAX TEMP:  78; 6HR PCP:  0.10;

Mt Carmel AP   CLOUDY    64  58  81 N3        29.50S
6HR MIN TEMP:  64; 6HR MAX TEMP:  83;

Olney-Noble AP RAIN      61  61 100 NW6       29.50S
Paris AP       CLOUDY    65  62  90 CALM      29.49F
6HR MIN TEMP:  64; 6HR MAX TEMP:  84; 6HR PCP:  0.06;

Peoria         CLOUDY    55  53  93 N3        29.49S
6HR MIN TEMP:  55; 6HR MAX TEMP:  68; 6HR PCP:  0.07;

Pontiac        LGT RAIN  66  62  87 W5        29.46F
6HR MIN TEMP:  66; 6HR MAX TEMP:  77;

Rantoul        CLOUDY    66  62  86 SW6       29.48S
6HR MIN TEMP:  66; 6HR MAX TEMP:  82;

Robinson       CLOUDY    63  62  97 CALM      29.50F
6HR MIN TEMP:  60; 6HR MAX TEMP:  83; 6HR PCP:  0.25;

Springfield    LGT RAIN  63  59  87 SW5       29.48R FOG
6HR MIN TEMP:  63; 6HR MAX TEMP:  72; 6HR PCP:  0.16;

Taylorville    RAIN      61  60  97 SE9       29.47F
6HR MIN TEMP:  61; 6HR MAX TEMP:  76; 6HR PCP:  0.21;

$$

...REGIONAL REPORTS...


CITY           SKY/WX    TMP DP  RH WIND       PRES   REMARKS
Chicago O`Hare MOCLDY    67  57  70 W7        29.44F
Kankakee       MOCLDY    67  57  68 SW6       29.47F
Moline         LGT RAIN  51  46  83 W9        29.51S
Mount Sterling DRIZZLE   50  49  97 N10       29.48F
Mount Vernon   CLOUDY    61  59  93 SW7       29.52F
Pittsfield     LGT RAIN  52  51  97 N7        29.48F
Quincy         CLOUDY    50  48  93 N10       29.49F FOG
Rockford       CLOUDY    55  52  89 W6        29.50F
$$


CITY           SKY/WX    TMP DP  RH WIND       PRES   REMARKS
Burlington     CLOUDY    48  47  96 NW9       29.50F
Cedar Rapids   CLOUDY    47  42  83 NW15      29.52F
Des Moines     CLOUDY    46  37  71 NW15      29.60R
Kirksville     CLOUDY    47  46  97 NW6       29.53S
Ottumwa        LGT RAIN  48  43  82 NW13      29.53F
St Louis       HVY RAIN  63  60  90 S7        29.48R FOG
$$


CITY           SKY/WX    TMP DP  RH WIND       PRES   REMARKS
Terre Haute    CLOUDY    65  62  90 NE3       29.49F
Evansville     PTCLDY    79  57  46 S10       29.49F HX  80
Indianapolis   CLOUDY    68  59  73 NW8       29.53R
Lafayette      CLOUDY    66  61  84 SW3       29.46F
Madison        CLOUDY    54  50  86 SW9       29.47R
Milwaukee      CLOUDY    67  54  63 SW15      29.45F
$$





USA.gov is the U.S. government's official web portal to all federal, state and local government web resources and services.